Voltar ao catálogo

STARLINK-6295

AtivoComunicaçõesVLEO
NORAD 56554·PAYLOAD·🇺🇸 United States

Lançado May 14, 2023 de Cape Canaveral Space Force Station

Loading…

Próximas Passagens (próximas 24 horas)

TLE

AtualizadoSource: CelesTrak SupGP

Época: Sep 14, 2026, 20:52 UTC

1 56554C 23065BD  26257.86993056  .00034873  00000+0  12635-2 0  2579
2 56554  43.0005 235.4167 0001553 259.0192  48.9236 15.27549397    14

Acompanhe STARLINK-6295 em tempo real com AllMySat

Download on the App Store